IW0HP-13 Weather Reports


Display with metric or nautical units.
time (UTC)temp
F
wind
direction
speed
MPH
gust
MPH
rain 1hr
in
rain 24hr
in
rain mn
in
humidity
%
barometer
mb
20260504015247 61 0.0 0.0 0.00 0.00 0.00 57 1019.9
20260504013247 61 0.0 0.0 0.00 0.00 0.00 57 1019.8
20260504011247 62 0.0 0.0 0.00 0.00 0.00 57 1020.0
20260504005247 62 0.0 0.0 0.00 0.00 0.00 57 1019.9
20260504003246 62 0.0 0.0 0.00 0.00 0.00 56 1019.9
20260504001246 63 0.0 0.0 0.00 0.00 0.00 56 1019.9
20260503235246 63 0.0 0.0 0.00 0.00 0.00 56 1020.1
20260503233246 64 0.0 0.0 0.00 0.00 0.00 56 1020.4
20260503231245 64 0.0 0.0 0.00 0.00 0.00 56 1020.5
20260503225245 64 0.0 0.0 0.00 0.00 0.00 55 1020.5
20260503223245 65 0.0 0.0 0.00 0.00 0.00 55 1020.7
20260503221245 65 0.0 0.0 0.00 0.00 0.00 54 1020.8
20260503215244 65 0.0 0.0 0.00 0.00 0.00 54 1020.6
20260503213244 65 0.0 0.0 0.00 0.00 0.00 53 1020.5
20260503211244 66 0.0 0.0 0.00 0.00 0.00 53 1020.4
20260503205244 66 0.0 0.0 0.00 0.00 0.00 53 1020.3
20260503203243 66 0.0 0.0 0.00 0.00 0.00 52 1020.4
20260503201243 66 0.0 0.0 0.00 0.00 0.00 52 1020.3
20260503195243 67 0.0 0.0 0.00 0.00 0.00 52 1020.1
20260503193243 67 0.0 0.0 0.00 0.00 0.00 51 1020.0
20260503191242 67 0.0 0.0 0.00 0.00 0.00 51 1019.8
20260503185242 67 0.0 0.0 0.00 0.00 0.00 50 1019.6
20260503183242 68 0.0 0.0 0.00 0.00 0.00 47 1019.3
20260503181241 69 0.0 0.0 0.00 0.00 0.00 43 1019.1
20260503175241 72 0.0 0.0 0.00 0.00 0.00 39 1018.9
20260503173241 77 0.0 0.0 0.00 0.00 0.00 33 1018.5
20260503171241 83 0.0 0.0 0.00 0.00 0.00 28 1018.1
20260503131238 72 0.0 0.0 0.00 0.00 0.00 34 1020.0
20260503081234 66 0.0 0.0 0.00 0.00 0.00 46 1021.7
20260503071233 63 0.0 0.0 0.00 0.00 0.00 45 1022.2
20260503053232 59 0.0 0.0 0.00 0.00 0.00 48 1022.1
20260503051231 58 0.0 0.0 0.00 0.00 0.00 49 1022.1
20260503045231 58 0.0 0.0 0.00 0.00 0.00 49 1021.9
20260503043231 58 0.0 0.0 0.00 0.00 0.00 49 1022.0
20260503041231 58 0.0 0.0 0.00 0.00 0.00 49 1021.9
20260503035231 58 0.0 0.0 0.00 0.00 0.00 48 1021.7
20260503033230 58 0.0 0.0 0.00 0.00 0.00 48 1021.8
20260503031230 58 0.0 0.0 0.00 0.00 0.00 47 1021.8
20260503025230 58 0.0 0.0 0.00 0.00 0.00 47 1021.7
20260503023230 59 0.0 0.0 0.00 0.00 0.00 46 1021.7
20260503021229 59 0.0 0.0 0.00 0.00 0.00 46 1021.8